Location: Unspecified
(43.4354°N, 0.0000°E)
Time: 22:21:47
(UTC+00:00)

Courier 1B - Pass Details

Date: 23 June 2019
Orbit: 962 x 1209 km, 28.3° (Epoch: 22 October)

Event Time Altitude Azimuth Distance (km) Brightness Sun altitude
Rises 21:19:48 0° 252° (WSW) 3,943 10.9 -13.4°
Reaches altitude 10° 21:23:17 10° 238° (WSW) 3,026 10.1 -13.8°
Maximum altitude 21:28:36 21° 192° (SSW) 2,355 9.1 -14.4°
Enters shadow 21:31:22 17° 165° (SSE) 2,583 9.1 -14.7°
Drops below altitude 10° 21:34:03 10° 147° (SSE) 3,117 - -15.0°
Sets 21:37:43 0° 132° (SE) 4,096 - -15.4°
